Location: Newark
(48.9886°N, 1.2358°E)
Time: 14:35:33
(UTC+00:00)

Transit 4A - Pass Details

Date: 21 November 2019
Orbit: 869 x 975 km, 66.8° (Epoch: 04 December)

Event Time Altitude Azimuth Distance (km) Brightness Sun altitude
Exits shadow 03:53:33 20° 4° (N) 1,931 9.6 -32.3°
Maximum altitude 03:55:18 23° 29° (NNE) 1,794 9.7 -32.0°
Drops below altitude 10° 03:59:55 10° 81° (E) 2,537 11.1 -31.3°
Sets 04:02:55 0° 96° (E) 3,464 12.0 -30.8°
